Weather History for Frederick, OK

Change the Weather History Date:

Wednesday, April 30, 2014

  Actual Average (KLTS) Record (KLTS)
Temperature  
Mean Temperature 56 °F -  
Max Temperature 68 °F 76 °F 93 °F (2002)
Min Temperature 45 °F 52 °F 39 °F (1998)
Degree Days  
Heating Degree Days 10    
Growing Degree Days 6 (Base 50)    
Moisture  
Dew Point 27 °F    
Average Humidity 36    
Maximum Humidity 63    
Minimum Humidity 17    
Precipitation  
Precipitation 0.00 in - - ()
Sea Level Pressure  
Sea Level Pressure 30.10 in    
Wind  
Wind Speed 16 mph (NNW)    
Max Wind Speed 21 mph    
Max Gust Speed 32 mph    
Visibility 10 miles    
Events      
Averages and records for this station are not official NWS values.
T = Trace of Precipitation, MM = Missing Value Source: NWS Daily Summary

Daily Weather History Graph

Daily Weather History Graph

Search for Another Location

Airport:

Trip Planner

Search our weather history database for the weather conditions in past years. The results will help you decide how hot, cold, wet, or windy it might be!

Date:

Astronomy

Apr. 30, 2014 Rise Set
Actual Time 6:47 AM CDT 8:19 PM CDT
Civil Twilight 6:20 AM CDT 8:46 PM CDT
Nautical Twilight 5:48 AM CDT 9:18 PM CDT
Astronomical Twilight 5:14 AM CDT 9:52 PM CDT
Moon 7:50 AM CDT (4/30) 9:57 PM CDT (4/30)
Length of Visible Light 14h 25m
Length of Day
13h 32m
New Moon, 2% of the Moon is Illuminated
Apr 30
New Moon
May 6
First Quarter
May 14
Full
May 21
Last Quarter
May 28
New

Hourly Weather History & Observations

Time (CDT) Temp. Windchill Dew Point Humidity Pressure Visibility Wind Dir Wind Speed Gust Speed Precip Events Conditions
12:53 AM 52.0 °F - 28.9 °F 41% 30.01 in 10.0 mi NNW 19.6 mph 27.6 mph N/A   Clear
1:53 AM 50.0 °F - 30.9 °F 48% 30.04 in 10.0 mi NNW 16.1 mph 23.0 mph N/A   Clear
2:53 AM 48.9 °F - 32.0 °F 52% 30.05 in 10.0 mi North 19.6 mph 26.5 mph N/A   Mostly Cloudy
3:53 AM 48.9 °F - 34.0 °F 56% 30.07 in 10.0 mi NNW 17.3 mph - N/A   Mostly Cloudy
4:53 AM 48.0 °F - 33.1 °F 56% 30.10 in 10.0 mi North 16.1 mph 32.2 mph N/A   Scattered Clouds
6:53 AM 45.0 °F 38.9 °F 33.1 °F 63% 30.14 in 10.0 mi NW 12.7 mph - N/A   Clear
7:53 AM 46.9 °F - 33.1 °F 59% 30.16 in 10.0 mi NW 15.0 mph - N/A   Clear
8:53 AM 51.1 °F - 33.1 °F 50% 30.17 in 10.0 mi NNW 18.4 mph 25.3 mph N/A   Clear
10:53 AM 57.9 °F - 25.0 °F 28% 30.17 in 10.0 mi North 20.7 mph 26.5 mph N/A   Clear
11:53 AM 60.1 °F - 24.1 °F 25% 30.17 in 10.0 mi NNW 18.4 mph 32.2 mph N/A   Clear
12:53 PM 62.1 °F - 24.1 °F 23% 30.16 in 10.0 mi NNW 18.4 mph 28.8 mph N/A   Clear
1:53 PM 64.0 °F - 24.1 °F 22% 30.13 in 10.0 mi NNW 19.6 mph 29.9 mph N/A   Clear
3:53 PM 66.0 °F - 23.0 °F 20% 30.08 in 10.0 mi North 12.7 mph 21.9 mph N/A   Clear
4:53 PM 66.9 °F - 21.9 °F 18% 30.06 in 10.0 mi NNW 15.0 mph 25.3 mph N/A   Clear
5:53 PM 66.9 °F - 21.0 °F 17% 30.05 in 10.0 mi NNW 10.4 mph - N/A   Clear
6:53 PM 64.9 °F - 21.9 °F 19% 30.06 in 10.0 mi NNW 13.8 mph 23.0 mph N/A   Clear
7:53 PM 63.0 °F - 21.0 °F 20% 30.06 in 10.0 mi NNW 11.5 mph - N/A   Clear
8:53 PM 54.0 °F - 23.0 °F 30% 30.08 in 10.0 mi North 8.1 mph - N/A   Clear
9:53 PM 51.1 °F - 23.0 °F 33% 30.11 in 10.0 mi North - - N/A   Clear
10:53 PM 48.0 °F - 24.1 °F 39% 30.13 in 10.0 mi NNW 6.9 mph - N/A   Clear
11:53 PM 50.0 °F - 23.0 °F 35% 30.13 in 10.0 mi Calm Calm - N/A   Clear